sat.trackr.live / text

‹ back to catalog

STARLINK-34740

NORAD 64941 · 2025-158K

PAYLOAD ACTIVE UNKNOWN

§ Identity

Operator
Country
US
Launch date
2025-07-27
Launch site
AFWTR
Launch vehicle
Mass (kg)
RCS (m²)

Purposes: comms

External: N2YO · Heavens-Above · Gunter

§ Orbital elements

Epoch: 2026-09-20T21:26:07.983744Z

Period
93.91 min
Inclination
97.2824°
Eccentricity
0.0000614
Mean motion
15.33440733 rev/d
Perigee alt
465.1 km
Apogee alt
466.0 km
Semi-major
6,843.7 km
B*
9.5065e-4
RAAN
122.1509°
Arg perigee
7.7819°
Mean anomaly
352.3433°
Rev number
6,470

§ Raw data

STARLINK-347401 64941U 25158K   26263.89314796  .00030736  00000+0  95065-3 0  99972 64941  97.2824 122.1509 0000614   7.7819 352.3433 15.33440733 64704

JSON: /api/v1/satellites/64941 · /tle

For live sub-satellite position, see the globe view (requires WebGL).

§ Visibility from observer

Set your observer location to see the next 7 days of passes ≥ 10°. The values pass through the URL so the page stays shareable.

No JS? Fill the form by hand. The geolocation button needs JavaScript.